Terug naar catalogus

SL-14 DEB

ActiefPO
NORAD 45307·DEBRIS·🇷🇺 Russia

Gelanceerd Aug 15, 1991 vanaf Plesetsk Cosmodrome

Loading…

Volgende Passages (komende 24 uur)

TLE

VersSource: Space-Track

Epoch: Sep 14, 2026, 03:00 UTC

1 45307U 91056AV  26257.12543425 -.00000590  00000-0 -15637-2 0  9998
2 45307  82.6099 142.8986 0239427 296.0321  61.6320 13.07257977310104

Volg SL-14 DEB in realtime met AllMySat

Download on the App Store